Location: Bucharest
(44.4268°N, 26.1025°E)
Time: 00:29:47
(UTC+03:00)

O/OREOS (USA 219) - Pass Details

Date: 07 July 2022
Orbit: 621 x 646 km, 72.0° (Epoch: 22 May)

Event Time Altitude Azimuth Distance (km) Brightness Sun altitude
Rises 01:00:54 0° 330° (NNW) 2,966 ? -22.8°
Reaches altitude 10° 01:03:15 10° 325° (NW) 2,053 ? -22.8°
Maximum altitude 01:07:39 46° 252° (WSW) 869 ? -22.9°
Enters shadow 01:07:48 46° 247° (WSW) 871 ? -22.9°
